Flag for Brazil Weather past 2 weeks in Santarém, Pará, Brazil

Now
77 °F

Passing clouds.


Feels Like: 78 °F
Forecast: 75 / 85 °F
Wind: 2 mph from East

Location: Santarem-Aeroporto

Current Time: May 23, 2015 at 8:02:05 AM

Latest Report: May 23, 2015 at 7:00 AM


Visibility: N/A

Pressure: 29.92 "Hg

Humidity: 94%

Dew point: 75 °F

Location of SantarémLocation

Historic Weather in Santarém — Graph

°F

Santarém temperature yesterday

Maximum temperature yesterday: 86 °F (at 2:00 PM)
Minimum temperature yesterday: 73 °F (at 12:00 AM)
Average temperature yesterday: 80 °F

Past Weeks' High & Low Weather Summary

 TemperatureHumidityPressure
High88 °F (May 8, 6:00 PM)100% (May 8, 7:00 AM)29.98 "Hg (May 8, 7:00 AM)
Low37 °F (May 19, 8:00 AM)24% (May 18, 9:00 AM)29.77 "Hg (May 10, 5:00 PM)
Average79 °F89%29.88 "Hg
* Reported May 8 7:00 AM — May 23 7:00 AM, Santarém, Weather by CustomWeather, © 2015

Note: Actual official high and low records may vary slightly from our data, if they occured in-between our weather recording intervals... More about our weather records

Advertising

Santarém weather history for previous 24 hours

 ConditionsComfort  
Time TempWeatherWind HumidityBarometerVisibility
7:00 AM
Sat, May 23
77 °FPassing clouds.2 mph94%29.92 "HgN/A
6:00 AM79 °FLight rain. Partly cloudy.12 mph89%29.92 "HgN/A
5:00 AM75 °FPassing clouds.3 mph100%29.89 "HgN/A
4:00 AM75 °FPassing clouds.2 mph100%29.89 "HgN/A
3:00 AM77 °FPassing clouds.No wind94%29.89 "HgN/A
2:00 AM77 °FPartly cloudy.No wind94%29.89 "HgN/A
1:00 AM77 °FPassing clouds.3 mph94%29.92 "HgN/A
12:00 AM77 °FPassing clouds.2 mph94%29.95 "HgN/A
11:00 PM
Fri, May 22
77 °FPassing clouds.3 mph94%29.95 "HgN/A
10:00 PM79 °FPassing clouds.1 mph89%29.95 "HgN/A
9:00 PM79 °FPassing clouds.2 mph94%29.92 "HgN/A
8:00 PM81 °FPassing clouds.3 mph89%29.89 "HgN/A
7:00 PM82 °FPassing clouds.5 mph79%29.86 "HgN/A
6:00 PM84 °FPassing clouds.5 mph74%29.83 "HgN/A
5:00 PM86 °FPassing clouds.7 mph75%29.83 "HgN/A
4:00 PM86 °FPassing clouds.7 mph75%29.83 "HgN/A
3:00 PM86 °FPassing clouds.7 mph75%29.86 "HgN/A
2:00 PM86 °FPassing clouds.17 mph75%29.92 "HgN/A
1:00 PM82 °FBroken clouds.10 mph84%29.95 "HgN/A
12:00 PM84 °FBroken clouds.12 mph79%29.98 "HgN/A
11:00 AM81 °FBroken clouds.7 mph89%29.98 "HgN/A
10:00 AM81 °FBroken clouds.6 mph89%29.98 "HgN/A
9:00 AM77 °FBroken clouds.12 mph94%29.98 "HgN/A
8:00 AM77 °FCloudy.12 mph94%29.98 "HgN/A
Weather by CustomWeather, © 2015

See weather overviewHow to use our weather pages